Regional Weather Roundup
Issued by NWS

Home | Current Version | Previous Version | Text Only | Print | Product List | Glossary On
Versions: 1 2 3 4 5 6 7 8 9 10 11 12 13 14 15 16 17 18 19 20 21 22 23 24 25 26 27 28 29 30 31 32 33 34 35 36 37 38 39 40 41 42 43 44 45 46 47 48 49 50
000
ASUS43 KTOP 020608
RWRKS

WEATHER ROUNDUP FOR KANSAS
NATIONAL WEATHER SERVICE GOODLAND KS
100 AM CDT MON MAY 02 2016

NOTE:  "FAIR" INDICATES FEW OR NO CLOUDS BELOW 12,000 FEET WITH NO
SIGNIFICANT WEATHER AND/OR OBSTRUCTIONS TO VISIBILITY.

KSZ001>006-013>018-027>032-041>047-020700-
NORTHWEST KANSAS

CITY           SKY/WX    TMP DP  RH WIND       PRES   REMARKS
GOODLAND       CLEAR     32  28  85 NW7       30.26R
6HR MIN TEMP:  32; 6HR MAX TEMP:  50;

HAYS           CLOUDY    43  32  65 W7        30.23S
HILL CITY      PTCLDY    38  36  92 W7        30.25R
6HR MIN TEMP:  37; 6HR MAX TEMP:  49;

RUSSELL        CLOUDY    45  41  86 W3        30.21S
6HR MIN TEMP:  45; 6HR MAX TEMP:  48;

$$

KSZ061>065-074>080-084>089-020700-
SOUTHWEST KANSAS

CITY           SKY/WX    TMP DP  RH WIND       PRES   REMARKS
DODGE CITY     CLOUDY    41  39  93 NW6       30.24S
6HR MIN TEMP:  41; 6HR MAX TEMP:  46; 6HR PCP: TRACE;

ELKHART          N/A     41  38  89 W5          N/A
GARDEN CITY    MOCLDY    41  38  89 NW7       30.25S
6HR MIN TEMP:  41; 6HR MAX TEMP:  47;

GREAT BEND     CLOUDY    45  37  76 NW5       30.22S
LIBERAL        CLOUDY    41  36  81 W6        30.26S
PRATT          DRIZZLE   41  40  94 N7        30.22S
6HR MIN TEMP:  41; 6HR MAX TEMP:  46; 6HR PCP:  0.01;

$$

KSZ066>073-081>083-090>101-020700-
SOUTHEAST KANSAS

CITY           SKY/WX    TMP DP  RH WIND       PRES   REMARKS
CHANUTE        CLOUDY    52  45  77 N5        30.14S
6HR MIN TEMP:  52; 6HR MAX TEMP:  60;

COFFEYVILLE    CLOUDY    54  46  74 N12       30.14S
6HR MIN TEMP:  54; 6HR MAX TEMP:  59;

HUTCHINSON     CLOUDY    47  42  83 N7        30.20S
6HR MIN TEMP:  47; 6HR MAX TEMP:  52;

MEDICINE LODGE   N/A     47  42  83 N10       30.21S
NEWTON         CLOUDY    45  37  76 N9        30.20S
PARSONS        CLOUDY    53  46  77 N9        30.15S
6HR MIN TEMP:  53; 6HR MAX TEMP:  60;

WICHITA INTL   CLOUDY    49  42  77 N10       30.18S
6HR MIN TEMP:  49; 6HR MAX TEMP:  53; 6HR PCP: TRACE;

WICHITA JABRA  CLOUDY    47  43  86 N8        30.18R
6HR MIN TEMP:  47; 6HR MAX TEMP:  51; 6HR PCP: TRACE;

WICHITA MCCONL CLOUDY    48  43  81 N10       30.18R
WINFIELD       CLOUDY    50  42  74 N8        30.18F
6HR MIN TEMP:  50; 6HR MAX TEMP:  54;

$$

KSZ007>012-019>026-033>040-048>060-102>105-020700-
NORTHEAST KANSAS

CITY           SKY/WX    TMP DP  RH WIND       PRES   REMARKS
CONCORDIA      CLOUDY    46  43  89 W5        30.20S
6HR MIN TEMP:  46; 6HR MAX TEMP:  47;

EMPORIA        CLOUDY    48  42  80 N6        30.17S
6HR MIN TEMP:  48; 6HR MAX TEMP:  53;

LAWRENCE       CLOUDY    49  44  83 NW7       30.16S
6HR MIN TEMP:  49; 6HR MAX TEMP:  53;

MANHATTAN      CLOUDY    49  42  77 N3        30.19S
6HR MIN TEMP:  49; 6HR MAX TEMP:  52;

MARYSVILLE     CLOUDY    45  43  93 NW3       30.18F
OLATHE IND     CLOUDY    49  44  83 NW7       30.16R
6HR MIN TEMP:  49; 6HR MAX TEMP:  55;

OLATHE EXE     CLOUDY    49  43  80 NW8       30.14F
6HR MIN TEMP:  49; 6HR MAX TEMP:  56;

SALINA         CLOUDY    48  44  86 W6        30.21S
6HR MIN TEMP:  48; 6HR MAX TEMP:  51;

TOPEKA BILLARD CLOUDY    49  43  80 NW6       30.17S
6HR MIN TEMP:  49; 6HR MAX TEMP:  51;

TOPEKA FORBES  CLOUDY    50  42  74 NW6       30.16F
6HR MIN TEMP:  50; 6HR MAX TEMP:  53;

$$




USA.gov is the U.S. government's official web portal to all federal, state and local government web resources and services.